Time,TemperatureF,DewpointF,PressureIn,WindDirection,WindDirectionDegrees,WindSpeedMPH,WindSpeedGustMPH,Humidity,HourlyPrecipIn,Conditions,Clouds,dailyrainin,SoftwareType,DateUTC
2013-11-23 00:01:00,55.2,54.9,29.80,NW,315,0.0,-999.0,99,-99.99,,,0.00,Acu-Link.com,2013-11-23 05:01:00,
2013-11-23 00:16:00,55.0,54.7,29.80,NNW,337,2.7,-999.0,99,-99.99,,,0.00,Acu-Link.com,2013-11-23 05:16:00,
2013-11-23 00:31:00,54.9,54.6,29.80,NW,315,1.7,-999.0,99,-99.99,,,0.00,Acu-Link.com,2013-11-23 05:31:00,
2013-11-23 00:47:00,54.9,54.6,29.79,NE,45,2.2,-999.0,99,-99.99,,,0.00,Acu-Link.com,2013-11-23 05:47:00,
2013-11-23 01:02:00,54.9,54.6,29.80,NW,315,2.7,-999.0,99,-99.99,,,0.00,Acu-Link.com,2013-11-23 06:02:00,
2013-11-23 01:17:00,54.9,54.6,29.79,WNW,292,2.7,-999.0,99,-99.99,,,0.00,Acu-Link.com,2013-11-23 06:17:00,
2013-11-23 01:32:00,54.9,54.6,29.79,NW,315,1.7,-999.0,99,-99.99,,,0.00,Acu-Link.com,2013-11-23 06:32:00,
2013-11-23 01:47:00,55.0,54.4,29.79,East,90,1.1,-999.0,98,-99.99,,,0.00,Acu-Link.com,2013-11-23 06:47:00,
2013-11-23 02:02:00,54.9,54.6,29.79,ENE,67,2.7,-999.0,99,-99.99,,,0.00,Acu-Link.com,2013-11-23 07:02:00,
2013-11-23 02:17:00,54.9,54.1,29.80,NNE,22,3.7,-999.0,97,-99.99,,,0.00,Acu-Link.com,2013-11-23 07:17:00,
2013-11-23 02:33:00,55.0,54.2,29.79,WNW,292,1.7,-999.0,97,-99.99,,,0.00,Acu-Link.com,2013-11-23 07:33:00,
2013-11-23 02:48:00,54.9,53.8,29.79,West,270,1.1,-999.0,96,-99.99,,,0.00,Acu-Link.com,2013-11-23 07:48:00,
2013-11-23 03:03:00,54.7,53.6,29.78,NE,45,1.1,-999.0,96,-99.99,,,0.00,Acu-Link.com,2013-11-23 08:03:00,
2013-11-23 03:18:00,54.0,53.4,29.78,SSW,202,2.7,-999.0,98,-99.99,,,0.00,Acu-Link.com,2013-11-23 08:18:00,
2013-11-23 03:33:00,53.6,53.0,29.77,SW,225,2.2,-999.0,98,-99.99,,,0.00,Acu-Link.com,2013-11-23 08:33:00,
2013-11-23 03:48:00,53.2,52.4,29.77,South,180,2.2,-999.0,97,-99.99,,,0.00,Acu-Link.com,2013-11-23 08:48:00,
2013-11-23 04:04:00,52.9,52.1,29.77,NE,45,3.7,-999.0,97,-99.99,,,0.00,Acu-Link.com,2013-11-23 09:04:00,
2013-11-23 04:19:00,52.9,51.5,29.77,ENE,67,3.7,-999.0,95,-99.99,,,0.00,Acu-Link.com,2013-11-23 09:19:00,
2013-11-23 04:34:00,52.5,51.4,29.76,North,0,2.7,-999.0,96,-99.99,,,0.00,Acu-Link.com,2013-11-23 09:34:00,
2013-11-23 04:50:00,52.2,51.4,29.76,NE,45,4.2,-999.0,97,-99.99,,,0.00,Acu-Link.com,2013-11-23 09:50:00,
2013-11-23 05:05:00,52.0,51.2,29.76,NW,315,1.7,-999.0,97,-99.99,,,0.00,Acu-Link.com,2013-11-23 10:05:00,
2013-11-23 05:20:00,51.6,51.1,29.76,NW,315,2.7,-999.0,98,-99.99,,,0.00,Acu-Link.com,2013-11-23 10:20:00,
2013-11-23 05:35:00,51.4,50.9,29.76,NE,45,5.3,-999.0,98,-99.99,,,0.00,Acu-Link.com,2013-11-23 10:35:00,
2013-11-23 05:50:00,51.1,50.6,29.77,NNW,337,4.2,-999.0,98,-99.99,,,0.00,Acu-Link.com,2013-11-23 10:50:00,
2013-11-23 06:05:00,50.9,50.6,29.76,NW,315,4.7,-999.0,99,-99.99,,,0.00,Acu-Link.com,2013-11-23 11:05:00,
2013-11-23 06:21:00,50.7,50.4,29.77,West,270,2.2,-999.0,99,-99.99,,,0.00,Acu-Link.com,2013-11-23 11:21:00,
2013-11-23 06:36:00,50.5,50.2,29.77,NNW,337,0.0,-999.0,99,-99.99,,,0.00,Acu-Link.com,2013-11-23 11:36:00,
2013-11-23 06:51:00,50.7,50.2,29.77,NNW,337,3.7,-999.0,98,-99.99,,,0.00,Acu-Link.com,2013-11-23 11:51:00,
2013-11-23 07:06:00,50.5,50.0,29.78,NW,315,3.7,-999.0,98,-99.99,,,0.00,Acu-Link.com,2013-11-23 12:06:00,
2013-11-23 07:21:00,50.4,49.6,29.79,NE,45,2.2,-999.0,97,-99.99,,,0.00,Acu-Link.com,2013-11-23 12:21:00,
2013-11-23 07:37:00,50.4,49.3,29.80,NE,45,4.2,-999.0,96,-99.99,,,0.00,Acu-Link.com,2013-11-23 12:37:00,
2013-11-23 07:52:00,50.5,48.6,29.81,West,270,2.7,-999.0,93,-99.99,,,0.00,Acu-Link.com,2013-11-23 12:52:00,
2013-11-23 08:07:00,50.5,48.6,29.81,North,0,3.7,-999.0,93,-99.99,,,0.00,Acu-Link.com,2013-11-23 13:07:00,
2013-11-23 08:22:00,50.5,48.3,29.81,NW,315,3.2,-999.0,92,-99.99,,,0.00,Acu-Link.com,2013-11-23 13:22:00,
2013-11-23 08:37:00,50.9,48.1,29.81,WNW,292,1.7,-999.0,90,-99.99,,,0.00,Acu-Link.com,2013-11-23 13:37:00,
2013-11-23 08:52:00,50.9,47.8,29.81,West,270,2.7,-999.0,89,-99.99,,,0.00,Acu-Link.com,2013-11-23 13:52:00,
2013-11-23 09:08:00,50.5,47.1,29.82,South,180,3.7,-999.0,88,-99.99,,,0.00,Acu-Link.com,2013-11-23 14:08:00,
2013-11-23 09:23:00,50.2,46.5,29.83,WNW,292,4.2,-999.0,87,-99.99,,,0.00,Acu-Link.com,2013-11-23 14:23:00,
2013-11-23 09:38:00,50.0,46.3,29.84,ENE,67,4.7,-999.0,87,-99.99,,,0.00,Acu-Link.com,2013-11-23 14:38:00,
2013-11-23 09:53:00,49.6,45.6,29.84,WSW,247,3.7,-999.0,86,-99.99,,,0.00,Acu-Link.com,2013-11-23 14:53:00,
2013-11-23 10:08:00,49.5,45.5,29.83,SSW,202,2.7,-999.0,86,-99.99,,,0.00,Acu-Link.com,2013-11-23 15:08:00,
2013-11-23 10:23:00,48.7,45.0,29.82,West,270,1.7,-999.0,87,-99.99,,,0.00,Acu-Link.com,2013-11-23 15:23:00,
2013-11-23 10:39:00,48.6,44.6,29.82,NW,315,3.7,-999.0,86,-99.99,,,0.00,Acu-Link.com,2013-11-23 15:39:00,
2013-11-23 10:54:00,48.4,44.1,29.82,East,90,3.7,-999.0,85,-99.99,,,0.00,Acu-Link.com,2013-11-23 15:54:00,
2013-11-23 11:09:00,48.6,44.3,29.82,South,180,3.7,-999.0,85,-99.99,,,0.00,Acu-Link.com,2013-11-23 16:09:00,
2013-11-23 11:24:00,48.7,43.8,29.81,WNW,292,4.2,-999.0,83,-99.99,,,0.00,Acu-Link.com,2013-11-23 16:24:00,
2013-11-23 11:39:00,49.5,44.6,29.81,East,90,3.2,-999.0,83,-99.99,,,0.00,Acu-Link.com,2013-11-23 16:39:00,
2013-11-23 11:55:00,49.1,43.8,29.81,ESE,112,5.8,-999.0,82,-99.99,,,0.00,Acu-Link.com,2013-11-23 16:55:00,
2013-11-23 12:10:00,49.5,43.9,29.81,NNW,337,5.3,-999.0,81,-99.99,,,0.00,Acu-Link.com,2013-11-23 17:10:00,
2013-11-23 12:25:00,50.0,43.7,29.80,West,270,4.2,-999.0,79,-99.99,,,0.00,Acu-Link.com,2013-11-23 17:25:00,
2013-11-23 12:40:00,49.6,43.0,29.79,West,270,4.7,-999.0,78,-99.99,,,0.00,Acu-Link.com,2013-11-23 17:40:00,
2013-11-23 12:56:00,50.4,43.8,29.78,SE,135,2.2,-999.0,78,-99.99,,,0.00,Acu-Link.com,2013-11-23 17:56:00,
2013-11-23 13:11:00,49.3,43.1,29.78,NW,315,6.8,-999.0,79,-99.99,,,0.00,Acu-Link.com,2013-11-23 18:11:00,
2013-11-23 13:26:00,48.6,42.7,29.77,NE,45,5.8,-999.0,80,-99.99,,,0.00,Acu-Link.com,2013-11-23 18:26:00,
2013-11-23 13:41:00,48.6,42.7,29.78,ESE,112,2.2,-999.0,80,-99.99,,,0.00,Acu-Link.com,2013-11-23 18:41:00,
2013-11-23 13:56:00,48.0,42.1,29.77,North,0,4.2,-999.0,80,-99.99,,,0.00,Acu-Link.com,2013-11-23 18:56:00,
2013-11-23 14:11:00,47.5,42.3,29.76,ENE,67,1.7,-999.0,82,-99.99,,,0.00,Acu-Link.com,2013-11-23 19:11:00,
2013-11-23 14:27:00,47.5,42.3,29.76,East,90,2.2,-999.0,82,-99.99,,,0.00,Acu-Link.com,2013-11-23 19:27:00,
2013-11-23 14:42:00,47.5,41.6,29.76,SSW,202,2.7,-999.0,80,-99.99,,,0.00,Acu-Link.com,2013-11-23 19:42:00,
2013-11-23 14:57:00,47.1,40.6,29.76,West,270,9.4,-999.0,78,-99.99,,,0.00,Acu-Link.com,2013-11-23 19:57:00,
2013-11-23 15:12:00,46.8,40.0,29.76,WNW,292,3.7,-999.0,77,-99.99,,,0.00,Acu-Link.com,2013-11-23 20:12:00,
2013-11-23 15:27:00,46.9,39.1,29.77,NW,315,5.3,-999.0,74,-99.99,,,0.00,Acu-Link.com,2013-11-23 20:27:00,
2013-11-23 15:42:00,46.9,38.4,29.78,NW,315,4.7,-999.0,72,-99.99,,,0.00,Acu-Link.com,2013-11-23 20:42:00,
2013-11-23 15:58:00,47.3,38.0,29.78,SSW,202,3.2,-999.0,70,-99.99,,,0.00,Acu-Link.com,2013-11-23 20:58:00,
2013-11-23 16:13:00,47.3,37.7,29.78,NE,45,2.7,-999.0,69,-99.99,,,0.00,Acu-Link.com,2013-11-23 21:13:00,
2013-11-23 16:28:00,46.8,36.8,29.78,WNW,292,3.2,-999.0,68,-99.99,,,0.00,Acu-Link.com,2013-11-23 21:28:00,
2013-11-23 16:43:00,45.1,35.9,29.78,East,90,3.2,-999.0,70,-99.99,,,0.00,Acu-Link.com,2013-11-23 21:43:00,
2013-11-23 16:58:00,44.4,35.6,29.77,ESE,112,1.7,-999.0,71,-99.99,,,0.00,Acu-Link.com,2013-11-23 21:58:00,
2013-11-23 17:13:00,43.7,34.2,29.78,North,0,2.7,-999.0,69,-99.99,,,0.00,Acu-Link.com,2013-11-23 22:13:00,
2013-11-23 17:28:00,43.3,33.5,29.78,North,0,5.3,-999.0,68,-99.99,,,0.00,Acu-Link.com,2013-11-23 22:28:00,
2013-11-23 17:44:00,43.0,32.1,29.79,NNW,337,3.2,-999.0,65,-99.99,,,0.00,Acu-Link.com,2013-11-23 22:44:00,
2013-11-23 17:59:00,42.6,30.5,29.79,NNE,22,4.7,-999.0,62,-99.99,,,0.00,Acu-Link.com,2013-11-23 22:59:00,
2013-11-23 18:14:00,42.3,30.2,29.79,NNW,337,5.3,-999.0,62,-99.99,,,0.00,Acu-Link.com,2013-11-23 23:14:00,
2013-11-23 18:29:00,41.7,29.3,29.80,SW,225,4.7,-999.0,61,-99.99,,,0.00,Acu-Link.com,2013-11-23 23:29:00,
2013-11-23 18:44:00,41.2,28.8,29.80,West,270,3.7,-999.0,61,-99.99,,,0.00,Acu-Link.com,2013-11-23 23:44:00,
2013-11-23 19:00:00,40.6,27.8,29.80,WNW,292,4.7,-999.0,60,-99.99,,,0.00,Acu-Link.com,2013-11-24 00:00:00,
2013-11-23 19:15:00,40.3,27.9,29.81,West,270,2.7,-999.0,61,-99.99,,,0.00,Acu-Link.com,2013-11-24 00:15:00,
2013-11-23 19:30:00,39.7,26.6,29.80,NE,45,6.3,-999.0,59,-99.99,,,0.00,Acu-Link.com,2013-11-24 00:30:00,
2013-11-23 19:45:00,39.7,26.6,29.80,SSE,157,1.7,-999.0,59,-99.99,,,0.00,Acu-Link.com,2013-11-24 00:45:00,
2013-11-23 20:00:00,39.6,26.5,29.81,ENE,67,3.7,-999.0,59,-99.99,,,0.00,Acu-Link.com,2013-11-24 01:00:00,
2013-11-23 20:15:00,39.0,27.1,29.79,ENE,67,3.7,-999.0,62,-99.99,,,0.00,Acu-Link.com,2013-11-24 01:15:00,
2013-11-23 20:30:00,38.8,27.7,29.79,SSW,202,2.7,-999.0,64,-99.99,,,0.00,Acu-Link.com,2013-11-24 01:30:00,
2013-11-23 20:46:00,38.3,28.0,29.80,South,180,1.7,-999.0,66,-99.99,,,0.00,Acu-Link.com,2013-11-24 01:46:00,
2013-11-23 21:01:00,38.1,27.8,29.79,NE,45,4.7,-999.0,66,-99.99,,,0.00,Acu-Link.com,2013-11-24 02:01:00,
2013-11-23 21:16:00,38.1,27.4,29.79,North,0,5.8,-999.0,65,-99.99,,,0.00,Acu-Link.com,2013-11-24 02:16:00,
2013-11-23 21:31:00,37.8,27.1,29.79,WNW,292,7.8,-999.0,65,-99.99,,,0.00,Acu-Link.com,2013-11-24 02:31:00,
2013-11-23 21:47:00,37.4,27.1,29.79,North,0,6.8,-999.0,66,-99.99,,,0.00,Acu-Link.com,2013-11-24 02:47:00,
2013-11-23 22:02:00,36.9,27.3,29.80,East,90,6.8,-999.0,68,-99.99,,,0.00,Acu-Link.com,2013-11-24 03:02:00,
2013-11-23 22:17:00,35.8,27.0,29.81,ENE,67,3.7,-999.0,70,-99.99,,,0.00,Acu-Link.com,2013-11-24 03:17:00,
2013-11-23 22:32:00,34.9,25.4,29.82,NNW,337,8.3,-999.0,68,-99.99,,,0.00,Acu-Link.com,2013-11-24 03:32:00,
2013-11-23 22:48:00,34.2,24.4,29.82,NNE,22,5.8,-999.0,67,-99.99,,,0.00,Acu-Link.com,2013-11-24 03:48:00,
2013-11-23 23:03:00,33.8,24.0,29.82,NNE,22,7.3,-999.0,67,-99.99,,,0.00,Acu-Link.com,2013-11-24 04:03:00,
2013-11-23 23:18:00,33.4,23.3,29.83,ENE,67,5.3,-999.0,66,-99.99,,,0.00,Acu-Link.com,2013-11-24 04:18:00,
2013-11-23 23:33:00,33.3,23.2,29.83,NNE,22,4.7,-999.0,66,-99.99,,,0.00,Acu-Link.com,2013-11-24 04:33:00,
2013-11-23 23:48:00,33.1,22.3,29.82,NNW,337,7.8,-999.0,64,-99.99,,,0.00,Acu-Link.com,2013-11-24 04:48:00,